Location: El Centro
(32.7920°N, 115.5620°W)
Time: 18:31:19
(UTC-07:00)

Amateur Radio Satellites - All Passes

Search period start: 23 August 2016 18:01
Search period end: 24 August 2016 18:01
Location: El Centro, 32.7920°N, 115.5620°W

Satellite Date Start Highest point End Downlink Frequencies (MHz)
Time Altitude Azimuth
JUGNU 23 Aug 18:05:50 18:06:43 10° 198° (SSW) 18:07:36 437.505
Cosmos 2504 23 Aug 18:12:30 18:18:02 23° 73° (ENE) 18:23:29 435.465 / 435.565
LilacSat-2 23 Aug 18:24:22 18:28:13 74° 260° (W) 18:32:04 437.200
Cosmos 2491 23 Aug 18:27:11 18:35:43 63° 92° (E) 18:44:17 435.465 / 435.565
Cubesat XI-IV 23 Aug 18:36:25 18:41:43 64° 258° (WSW) 18:47:02 437.490
STRAND 1 23 Aug 18:45:00 18:47:01 12° 93° (E) 18:49:03 437.568
CUTE-I 23 Aug 18:50:02 18:55:08 46° 260° (W) 19:00:16 437.470
NOAA 18 23 Aug 18:51:04 18:56:26 51° 259° (W) 19:01:49 137.9125
YUBILEINY 23 Aug 18:54:21 19:02:49 56° 270° (W) 19:11:14 435.215
BEESAT 3 23 Aug 18:55:07 18:56:19 11° 50° (NE) 18:57:31 437.485
GOMX 1 23 Aug 18:56:50 19:01:20 40° 263° (W) 19:06:10 467.674
BRITE-PL 23 Aug 18:59:34 19:02:18 16° 269° (W) 19:05:10 437.365/2234.400
CINEMA 3 23 Aug 19:03:42 19:07:56 28° 71° (ENE) 19:12:11 145.822/145.860
HO-68 23 Aug 19:04:45 19:11:09 36° 67° (ENE) 19:17:35 435.675
NOAA 15 23 Aug 19:07:34 19:11:40 23° 264° (W) 19:15:48 137.62
CUBESAT XI-V 23 Aug 19:15:48 19:17:57 13° 293° (WNW) 19:20:06 437.345
SEEDS 23 Aug 19:19:01 19:21:47 18° 70° (ENE) 19:24:35 437.485
DOVE 4 23 Aug 19:26:16 19:31:00 45° 262° (W) 19:36:00 437.250
CANX-2 23 Aug 19:29:49 19:33:46 41° 74° (ENE) 19:37:44 2200.000
SRMSAT 23 Aug 19:31:34 19:34:52 15° 194° (SSW) 19:38:11 437.500
CUTE 1.7 + AOD 2 23 Aug 19:36:49 19:40:48 43° 75° (ENE) 19:44:47 437.475
CUBEBUG 2 23 Aug 19:52:44 19:56:34 25° 71° (ENE) 20:00:23 437.445
UWE-3 23 Aug 20:00:35 20:03:55 20° 70° (ENE) 20:07:13 435.000/436.395/437.385
AAUSAT CUBESAT 2 23 Aug 20:02:24 20:05:59 30° 73° (ENE) 20:09:35 437.432
BEESAT 2 23 Aug 20:03:13 20:06:50 31° 57° (ENE) 20:10:24 435.950
Cosmos 2504 23 Aug 20:04:46 20:11:39 49° 270° (W) 20:18:27 435.465 / 435.565
COMPASS 1 23 Aug 20:05:32 20:09:26 43° 75° (ENE) 20:13:22 437.405
Oscar 11 23 Aug 20:06:47 20:08:48 13° 68° (ENE) 20:10:48 145.826/435.025
FUNcube-1 23 Aug 20:07:54 20:10:01 13° 68° (ENE) 20:12:08 145.935
STRAND 1 23 Aug 20:21:29 20:26:30 59° 286° (WNW) 20:31:30 437.568
ZACube-1 23 Aug 20:25:12 20:28:45 23° 71° (ENE) 20:32:16 437.345
Cosmos 2491 23 Aug 20:26:33 20:33:03 23° 289° (WNW) 20:39:39 435.465 / 435.565
BEESAT 3 23 Aug 20:30:25 20:34:17 54° 245° (WSW) 20:38:08 437.485
CINEMA 3 23 Aug 20:40:46 20:44:55 26° 264° (W) 20:49:08 145.822/145.860
DELFI C3 23 Aug 20:46:06 20:48:00 13° 69° (ENE) 20:49:56 145.870
AIST 1 23 Aug 20:49:03 20:53:19 46° 81° (E) 20:57:31
HO-68 23 Aug 20:52:15 20:58:44 36° 261° (W) 21:05:15 435.675
SEEDS 23 Aug 20:53:39 20:57:15 28° 263° (W) 21:00:52 437.485
PRISM 23 Aug 20:55:37 20:59:22 32° 98° (E) 21:03:06 437.425
CANX-2 23 Aug 21:08:09 21:09:46 12° 267° (W) 21:11:23 2200.000
CUTE 1.7 + AOD 2 23 Aug 21:15:24 21:16:48 11° 267° (W) 21:18:11 437.475
PCSat 23 Aug 21:25:24 21:29:40 23° 55° (NE) 21:33:55 145.827
CUBEBUG 2 23 Aug 21:29:04 21:33:02 26° 264° (W) 21:36:57 437.445
UWE-3 23 Aug 21:35:59 21:40:07 32° 262° (W) 21:44:13 435.000/436.395/437.385
AIST 2 23 Aug 21:37:49 21:40:03 14° 51° (NE) 21:42:18 435.215
AAUSAT CUBESAT 2 23 Aug 21:38:59 21:41:29 16° 266° (W) 21:43:59 437.432
Oscar 11 23 Aug 21:40:26 21:44:31 42° 261° (W) 21:48:37 145.826/435.025
FUNcube-1 23 Aug 21:41:30 21:45:51 46° 261° (W) 21:50:07 145.935
BEESAT 2 23 Aug 21:41:50 21:44:22 16° 251° (WSW) 21:46:53 435.950
COMPASS 1 23 Aug 21:44:08 21:45:09 11° 267° (W) 21:46:10 437.405
HUMSAT D 23 Aug 21:50:09 21:54:05 40° 74° (ENE) 21:57:59 437.325/437.525
UNISAT 6 23 Aug 22:00:34 22:03:07 15° 94° (E) 22:05:39 437.425
ZACube-1 23 Aug 22:01:06 22:04:52 26° 263° (W) 22:08:37 437.345
DELFI C3 23 Aug 22:18:57 22:22:31 33° 262° (W) 22:26:06 145.870
AIST 1 23 Aug 22:29:18 22:30:22 11° 275° (W) 22:31:27
PRISM 23 Aug 22:31:47 22:34:22 16° 292° (WNW) 22:36:57 437.425
ANTELSAT 23 Aug 22:36:26 22:40:31 42° 99° (E) 22:44:32 437.575/2403.000
VELOX 1 23 Aug 22:36:55 22:37:57 11° 65° (ENE) 22:38:59 145.980
AUBIESAT-1 23 Aug 22:39:21 22:43:50 64° 71° (ENE) 22:48:27 437.475
M-CUBED/EXP-1 PRIME 23 Aug 22:41:01 22:45:34 83° 70° (ENE) 22:50:18 437.505
CUBEBUG 1 23 Aug 22:48:26 22:51:26 18° 69° (ENE) 22:54:28 437.445
50 SAT 23 Aug 22:51:00 22:52:29 12° 69° (ENE) 22:53:59 437.505
ESTCUBE 1 23 Aug 22:55:33 22:59:37 35° 72° (ENE) 23:03:41 437.505/2401.250
DX 1 23 Aug 23:07:18 23:10:04 17° 68° (ENE) 23:12:51 434.975-435.025
PCSat 23 Aug 23:08:07 23:13:10 40° 250° (WSW) 23:18:11 145.827
GONETS M04 23 Aug 23:08:24 23:16:45 44° 78° (ENE) 23:25:00
TIGRISAT 23 Aug 23:08:31 23:12:49 79° 282° (WNW) 23:17:02 435.000
AIST 2 23 Aug 23:14:45 23:18:45 46° 246° (WSW) 23:22:45 435.215
AISAT 23 Aug 23:21:56 23:26:03 39° 73° (ENE) 23:30:13 437.250
Cosmos 2499 23 Aug 23:22:16 23:28:38 35° 77° (ENE) 23:35:02 435.465 / 435.565
SPROUT 23 Aug 23:26:26 23:29:31 19° 70° (ENE) 23:32:36 437.525
QB50P1 23 Aug 23:27:24 23:30:34 20° 96° (E) 23:33:43 145.935-145.965
HUMSAT D 23 Aug 23:28:06 23:29:49 12° 267° (W) 23:31:32 437.325/437.525
UNISAT 6 23 Aug 23:36:02 23:39:54 33° 288° (WNW) 23:43:43 437.425
POPSAT HIP 1 23 Aug 23:36:40 23:40:13 26° 97° (E) 23:43:44 437.405
BUGSAT 1 23 Aug 23:49:16 23:50:52 12° 93° (E) 23:52:27 437.445
UKube-1 23 Aug 23:54:35 23:58:42 46° 74° (ENE) 00:02:51 .
CUSAT 1 24 Aug 00:00:55 00:03:31 89° 320° (NW) 00:06:25 437.405
QB50P2 24 Aug 00:05:23 00:09:36 68° 102° (ESE) 00:13:46 145.880/145.840
POLYITAN 1 24 Aug 00:07:56 00:12:08 69° 101° (ESE) 00:16:17 437.675
DUCHIFAT 1 24 Aug 00:09:07 00:13:16 60° 101° (E) 00:17:23 145.980
VELOX 1 24 Aug 00:09:32 00:13:52 57° 260° (W) 00:18:15 145.980
SO-50 24 Aug 00:11:10 00:15:58 62° 115° (ESE) 00:20:45 436.795
JAS-2 24 Aug 00:11:53 00:18:13 39° 99° (E) 00:25:07 435.910
ANTELSAT 24 Aug 00:14:54 00:16:47 13° 293° (WNW) 00:18:41 437.575/2403.000
DANDE 24 Aug 00:17:23 00:19:37 22° 95° (E) 00:21:45 436.750
AUBIESAT-1 24 Aug 00:18:16 00:18:35 10° 264° (W) 00:18:54 437.475
NANOSAT C BR1 24 Aug 00:20:42 00:24:56 87° 280° (W) 00:29:06 145.865
O/OREOS (USA 219) 24 Aug 00:22:26 00:26:37 34° 66° (ENE) 00:30:47 437.305
50 SAT 24 Aug 00:22:36 00:25:45 29° 262° (W) 00:28:55 437.505
CUBEBUG 1 24 Aug 00:23:35 00:27:27 31° 262° (W) 00:31:22 437.445
ESTCUBE 1 24 Aug 00:33:43 00:36:28 16° 266° (W) 00:39:15 437.505/2401.250
DX 1 24 Aug 00:42:00 00:45:56 34° 261° (W) 00:49:55 434.975-435.025
RS-15 24 Aug 00:50:24 01:00:33 40° 106° (ESE) 01:11:07 29.354- 29.394
AISAT 24 Aug 01:00:15 01:02:38 14° 266° (W) 01:05:03 437.250
SPROUT 24 Aug 01:01:31 01:05:13 28° 263° (W) 01:08:57 437.525
QB50P1 24 Aug 01:02:49 01:06:15 25° 289° (WNW) 01:09:41 145.935-145.965
GONETS M04 24 Aug 01:05:34 01:13:14 34° 274° (W) 01:20:53
POPSAT HIP 1 24 Aug 01:12:44 01:15:47 20° 290° (WNW) 01:18:50 437.405
Cosmos 2499 24 Aug 01:15:32 01:21:31 31° 272° (W) 01:27:34 435.465 / 435.565
BUGSAT 1 24 Aug 01:22:30 01:26:23 39° 287° (WNW) 01:30:12 437.445
UKube-1 24 Aug 01:33:30 01:34:56 11° 267° (W) 01:36:22 .
TISAT 1 24 Aug 01:35:35 01:39:44 56° 259° (W) 01:43:56 437.305
ITUPSAT 1 24 Aug 01:43:31 01:47:30 27° 70° (ENE) 01:51:29 437.325
SO-50 24 Aug 01:54:04 01:56:49 15° 311° (NW) 01:59:33 436.795
JAS-2 24 Aug 01:57:06 02:03:03 34° 290° (WNW) 02:09:34 435.910
O/OREOS (USA 219) 24 Aug 02:02:39 02:05:42 18° 260° (W) 02:08:46 437.305
PHONESAT 2.4 24 Aug 02:06:14 02:08:31 20° 144° (SE) 02:10:49 2401.200-2431.200
Oscar 19 24 Aug 02:16:19 02:21:33 83° 283° (WNW) 02:26:44 437.125/150
SWISSCUBE 24 Aug 02:18:03 02:22:48 77° 76° (ENE) 02:27:33 437.505
BEESAT 24 Aug 02:35:41 02:40:26 76° 258° (WSW) 02:45:12 436.000
Gurwin Techsat 1B 24 Aug 02:52:57 02:58:17 83° 284° (WNW) 03:03:35 435.225
RS-15 24 Aug 03:01:22 03:12:30 54° 306° (NW) 03:24:17 29.354- 29.394
ITAMSAT 1 24 Aug 03:21:20 03:26:23 52° 101° (E) 03:31:25 435.822/435.867
ITUPSAT 1 24 Aug 03:21:22 03:25:13 24° 263° (W) 03:29:06 437.325
MOZHAYETS 4 24 Aug 03:26:28 03:30:49 46° 74° (ENE) 03:35:11
PHONESAT 2.4 24 Aug 03:41:47 03:44:43 51° 337° (NNW) 03:47:40 2401.200-2431.200
KKS-1 24 Aug 03:50:44 03:55:10 72° 77° (ENE) 03:59:39 437.445
AO-7 24 Aug 04:07:17 04:15:27 58° 103° (ESE) 04:23:33 29.400- 29.500
CUBESAT XI-V 24 Aug 04:35:41 04:39:39 30° 72° (ENE) 04:43:38 437.345
STARS 24 Aug 04:38:02 04:42:26 67° 258° (WSW) 04:46:52 437.465
Cosmos 2491 24 Aug 04:44:04 04:50:56 25° 72° (ENE) 04:57:47 435.465 / 435.565
ITAMSAT 1 24 Aug 05:02:23 05:05:21 16° 295° (WNW) 05:08:21 435.822/435.867
MOZHAYETS 4 24 Aug 05:06:06 05:08:09 13° 267° (W) 05:10:12
HORYU 2 24 Aug 05:09:06 05:12:59 30° 98° (E) 05:16:49 437.375
PHONESAT 2.4 24 Aug 05:19:13 05:21:29 19° 353° (N) 05:23:46 2401.200-2431.200
RS-15 24 Aug 05:22:02 05:28:45 16° 334° (NNW) 05:35:38 29.354- 29.394
BRITE-PL 24 Aug 05:28:33 05:33:03 24° 94° (E) 05:37:27 437.365/2234.400
NOAA 15 24 Aug 05:47:31 05:51:10 19° 95° (E) 05:54:46 137.62
AO-85 24 Aug 05:48:48 05:54:04 59° 115° (ESE) 05:59:09 145.980
YUBILEINY 24 Aug 05:53:37 06:01:20 35° 86° (E) 06:09:03 435.215
STRAND 1 24 Aug 05:57:17 05:59:15 12° 64° (ENE) 06:01:14 437.568
AO-7 24 Aug 06:01:01 06:07:38 28° 299° (WNW) 06:14:15 29.400- 29.500
LilacSat-2 24 Aug 06:03:19 06:05:38 15° 95° (E) 06:07:55 437.200
CUBESAT XI-V 24 Aug 06:13:36 06:17:00 20° 265° (W) 06:20:25 437.345
Cosmos 2491 24 Aug 06:39:36 06:48:13 60° 269° (W) 06:56:49 435.465 / 435.565
Cosmos 2504 24 Aug 06:44:53 06:51:33 26° 85° (E) 06:57:54 435.465 / 435.565
HORYU 2 24 Aug 06:46:10 06:49:18 19° 291° (WNW) 06:52:24 437.375
PHONESAT 2.4 24 Aug 06:56:02 06:58:28 22° 11° (N) 07:00:52 2401.200-2431.200
Cubesat XI-IV 24 Aug 06:58:07 07:03:27 75° 103° (ESE) 07:08:45 437.490
GOMX 1 24 Aug 07:02:43 07:08:12 90° 101° (E) 07:13:23 467.674
BRITE-PL 24 Aug 07:06:15 07:11:31 40° 288° (WNW) 07:16:42 437.365/2234.400
CUTE-I 24 Aug 07:11:19 07:16:38 80° 284° (WNW) 07:21:56 437.470
NOAA 18 24 Aug 07:17:31 07:23:00 81° 285° (WNW) 07:28:27 137.9125
NOAA 15 24 Aug 07:26:02 07:31:03 43° 288° (WNW) 07:36:02 137.62
CUTE 1.7 + AOD 2 24 Aug 07:28:52 07:29:35 10° 92° (E) 07:30:18 437.475
DOVE 4 24 Aug 07:29:47 07:34:53 76° 101° (E) 07:39:40 437.250
AO-85 24 Aug 07:31:21 07:34:51 18° 309° (NW) 07:38:14 145.980
STRAND 1 24 Aug 07:32:45 07:37:49 66° 258° (WSW) 07:42:54 437.568
LilacSat-2 24 Aug 07:36:46 07:39:53 25° 288° (WNW) 07:43:00 437.200
PRISM 24 Aug 07:42:24 07:44:19 13° 67° (ENE) 07:46:15 437.425
RS-15 24 Aug 07:45:09 07:49:20 12° 13° (NNE) 07:53:31 29.354- 29.394
YUBILEINY 24 Aug 07:49:38 07:57:50 42° 282° (WNW) 08:06:08 435.215
HO-68 24 Aug 08:23:59 08:31:02 58° 102° (ESE) 08:38:01 435.675
PHONESAT 2.4 24 Aug 08:32:06 08:35:06 81° 24° (NNE) 08:38:06 2401.200-2431.200
Cosmos 2504 24 Aug 08:35:56 08:44:23 56° 279° (W) 08:52:22 435.465 / 435.565
CINEMA 3 24 Aug 08:39:34 08:44:07 70° 284° (WNW) 08:48:25 145.822/145.860
SEEDS 24 Aug 08:41:07 08:45:16 61° 100° (E) 08:49:26 437.485
Cubesat XI-IV 24 Aug 08:41:13 08:42:48 11° 297° (WNW) 08:44:24 437.490
SO-50 24 Aug 08:48:05 08:51:06 17° 50° (NE) 08:54:06 436.795
ISS 24 Aug 08:49:26 08:52:10 25° 129° (SE) 08:54:54 145.825
CANX-2 24 Aug 08:54:37 08:58:43 50° 285° (WNW) 09:02:49 2200.000
CUTE 1.7 + AOD 2 24 Aug 09:01:33 09:05:37 48° 285° (WNW) 09:09:41 437.475
DOVE 4 24 Aug 09:11:14 09:11:45 10° 297° (WNW) 09:12:15 437.250
AIST 1 24 Aug 09:13:44 09:17:36 33° 91° (E) 09:21:31
PRISM 24 Aug 09:15:27 09:19:15 38° 261° (W) 09:23:04 437.425
AAUSAT CUBESAT 2 24 Aug 09:23:37 09:27:46 75° 284° (WNW) 09:31:55 437.432
CUBEBUG 2 24 Aug 09:23:48 09:28:04 84° 281° (W) 09:32:13 437.445
COMPASS 1 24 Aug 09:27:50 09:31:53 49° 285° (WNW) 09:35:55 437.405
UWE-3 24 Aug 09:29:43 09:33:54 72° 100° (E) 09:38:01 435.000/436.395/437.385
ANTELSAT 24 Aug 09:31:00 09:34:43 24° 71° (ENE) 09:38:23 437.575/2403.000
Oscar 11 24 Aug 09:31:47 09:35:56 45° 99° (E) 09:40:04 145.826/435.025
FUNcube-1 24 Aug 09:34:00 09:37:58 43° 99° (E) 09:41:53 145.935
BEESAT 2 24 Aug 09:52:04 09:54:28 16° 109° (ESE) 09:56:52 435.950
ZACube-1 24 Aug 09:53:07 09:57:17 86° 99° (E) 10:01:25 437.345
RS-15 24 Aug 09:56:32 10:07:29 35° 46° (NE) 10:18:13 29.354- 29.394
DELFI C3 24 Aug 10:00:27 10:04:12 38° 99° (E) 10:07:56 145.870
TIGRISAT 24 Aug 10:02:10 10:06:41 52° 75° (ENE) 10:11:08 435.000
PHONESAT 2.4 24 Aug 10:09:51 10:11:09 12° 219° (SW) 10:12:27 2401.200-2431.200
HO-68 24 Aug 10:12:50 10:18:12 23° 297° (WNW) 10:23:32 435.675
BEESAT 3 24 Aug 10:16:24 10:20:16 72° 116° (ESE) 10:24:11 437.485
ISS 24 Aug 10:25:52 10:28:32 23° 324° (NW) 10:31:12 145.825
POPSAT HIP 1 24 Aug 10:26:39 10:28:18 12° 67° (ENE) 10:29:57 437.405
SO-50 24 Aug 10:27:29 10:31:47 43° 246° (WSW) 10:35:58 436.795
UNISAT 6 24 Aug 10:29:21 10:34:00 71° 259° (W) 10:38:36 437.425
CUSAT 1 24 Aug 10:34:18 10:40:29 50° 80° (E) 10:47:52 437.405
AIST 1 24 Aug 10:52:46 10:55:16 15° 285° (WNW) 10:57:47
QB50P2 24 Aug 10:53:49 10:57:28 28° 72° (ENE) 11:01:07 145.880/145.840
ESTCUBE 1 24 Aug 10:54:59 10:55:58 11° 92° (E) 10:56:56 437.505/2401.250
DANDE 24 Aug 10:55:15 10:59:49 27° 80° (E) 11:05:23 436.750
POLYITAN 1 24 Aug 10:56:19 11:00:00 28° 72° (ENE) 11:03:41 437.675
DUCHIFAT 1 24 Aug 10:56:56 11:00:25 25° 71° (ENE) 11:03:53 145.980
ANTELSAT 24 Aug 11:07:22 11:11:16 26° 263° (W) 11:15:08 437.575/2403.000
NANOSAT C BR1 24 Aug 11:08:19 11:12:14 37° 73° (ENE) 11:16:10 145.865
Oscar 11 24 Aug 11:09:52 11:11:37 12° 293° (WNW) 11:13:22 145.826/435.025
FUNcube-1 24 Aug 11:12:20 11:13:46 12° 293° (WNW) 11:15:12 145.935
HUMSAT D 24 Aug 11:13:06 11:17:04 54° 285° (WNW) 11:21:03 437.325/437.525
AISAT 24 Aug 11:19:12 11:20:08 11° 92° (E) 11:21:06 437.250
BEESAT 2 24 Aug 11:28:27 11:32:00 31° 303° (WNW) 11:35:33 435.950
DELFI C3 24 Aug 11:36:58 11:38:39 12° 292° (WNW) 11:40:20 145.870
TIGRISAT 24 Aug 11:41:49 11:43:33 12° 267° (W) 11:45:16 435.000
UKube-1 24 Aug 11:48:39 11:49:44 11° 93° (E) 11:50:49 .
QB50P1 24 Aug 11:49:44 11:53:58 61° 260° (W) 11:58:12 145.935-145.965
Cosmos 2499 24 Aug 11:52:44 12:00:11 36° 88° (E) 12:07:10 435.465 / 435.565
50 SAT 24 Aug 11:54:58 11:58:05 26° 98° (E) 12:01:11 437.505
AUBIESAT-1 24 Aug 11:57:24 12:01:30 83° 286° (WNW) 12:05:15 437.475
POPSAT HIP 1 24 Aug 11:59:30 12:03:37 46° 260° (W) 12:07:46 437.405
M-CUBED/EXP-1 PRIME 24 Aug 11:59:47 12:03:53 60° 290° (WNW) 12:07:40 437.505
PCSat 24 Aug 12:01:46 12:06:57 49° 111° (ESE) 12:12:10 145.827
GONETS M04 24 Aug 12:03:23 12:11:50 58° 91° (E) 12:20:22
VELOX 1 24 Aug 12:04:06 12:08:15 37° 99° (E) 12:12:21 145.980
JAS-2 24 Aug 12:05:13 12:10:21 69° 75° (ENE) 12:15:37 435.910
BUGSAT 1 24 Aug 12:06:59 12:11:11 73° 77° (ENE) 12:15:27 437.445
RS-15 24 Aug 12:08:39 12:20:52 70° 248° (WSW) 12:32:46 29.354- 29.394
CUBEBUG 1 24 Aug 12:15:55 12:20:20 67° 102° (ESE) 12:24:42 437.445
CUSAT 1 24 Aug 12:17:05 12:22:17 25° 269° (W) 12:28:10 437.405
JUGNU 24 Aug 12:22:32 12:26:31 19° 170° (S) 12:30:28 437.505
ESTCUBE 1 24 Aug 12:28:35 12:33:01 54° 285° (WNW) 12:37:26 437.505/2401.250
QB50P2 24 Aug 12:30:11 12:33:13 19° 265° (W) 12:36:16 145.880/145.840
POLYITAN 1 24 Aug 12:32:44 12:35:46 19° 265° (W) 12:38:47 437.675
DUCHIFAT 1 24 Aug 12:32:45 12:36:00 21° 264° (W) 12:39:15 145.980
DX 1 24 Aug 12:34:03 12:38:22 55° 101° (E) 12:42:39 434.975-435.025
Gurwin Techsat 1B 24 Aug 12:34:46 12:35:35 10° 63° (ENE) 12:36:25 435.225
DANDE 24 Aug 12:37:26 12:42:25 36° 265° (W) 12:48:42 436.750
NANOSAT C BR1 24 Aug 12:45:45 12:48:03 14° 266° (W) 12:50:20 145.865
SPROUT 24 Aug 12:51:07 12:55:23 67° 101° (E) 12:59:36 437.525
AISAT 24 Aug 12:52:30 12:56:52 53° 286° (WNW) 13:01:11 437.250
AIST 2 24 Aug 13:07:38 13:11:42 76° 298° (WNW) 13:15:51 435.215
UKube-1 24 Aug 13:21:48 13:25:59 49° 286° (WNW) 13:30:09 .
TISAT 1 24 Aug 13:24:11 13:27:52 29° 98° (E) 13:31:30 437.305
Oscar 19 24 Aug 13:28:33 13:33:41 89° 245° (WSW) 13:38:54 437.125/150
50 SAT 24 Aug 13:29:25 13:31:24 14° 290° (WNW) 13:33:22 437.505
VELOX 1 24 Aug 13:41:37 13:44:22 16° 292° (WNW) 13:47:06 145.980
Cosmos 2499 24 Aug 13:45:29 13:53:07 38° 282° (WNW) 14:00:18 435.465 / 435.565
PCSat 24 Aug 13:46:42 13:50:35 20° 307° (NW) 13:54:28 145.827
SRMSAT 24 Aug 13:53:14 13:56:19 14° 166° (SSE) 13:59:24 437.500
GONETS M04 24 Aug 14:02:08 14:09:02 26° 288° (WNW) 14:16:01
Gurwin Techsat 1B 24 Aug 14:09:28 14:14:47 81° 257° (WSW) 14:20:07 435.225
JUGNU 24 Aug 14:10:23 14:14:55 23° 180° (S) 14:19:25 437.505
DX 1 24 Aug 14:12:59 14:14:01 11° 295° (WNW) 14:15:03 434.975-435.025
SWISSCUBE 24 Aug 14:23:09 14:27:11 27° 97° (E) 14:31:13 437.505
AO-85 24 Aug 14:27:08 14:29:09 13° 48° (NE) 14:31:06 145.980
RS-15 24 Aug 14:27:52 14:31:01 11° 264° (W) 14:34:10 29.354- 29.394
O/OREOS (USA 219) 24 Aug 14:29:48 14:34:16 88° 291° (WNW) 14:38:48 437.305
ITAMSAT 1 24 Aug 14:34:52 14:39:52 51° 73° (ENE) 14:44:53 435.822/435.867
BEESAT 24 Aug 14:40:24 14:44:50 38° 99° (E) 14:49:14 436.000
TISAT 1 24 Aug 15:00:26 15:03:15 18° 291° (WNW) 15:06:03 437.305
AO-7 24 Aug 15:01:08 15:09:10 54° 68° (ENE) 15:17:13 29.400- 29.500
ITUPSAT 1 24 Aug 15:25:09 15:29:54 68° 285° (WNW) 15:34:37 437.325
MOZHAYETS 4 24 Aug 15:27:07 15:29:48 15° 94° (E) 15:32:30
SRMSAT 24 Aug 15:40:25 15:44:50 22° 175° (S) 15:49:16 437.500
KKS-1 24 Aug 15:47:02 15:50:16 19° 95° (E) 15:53:27 437.445
JUGNU 24 Aug 15:59:22 16:03:18 18° 190° (S) 16:07:13 437.505
SWISSCUBE 24 Aug 16:01:00 16:04:49 24° 291° (WNW) 16:08:37 437.505
HORYU 2 24 Aug 16:03:40 16:06:34 17° 68° (ENE) 16:09:28 437.375
AO-85 24 Aug 16:05:56 16:09:52 45° 246° (WSW) 16:13:34 145.980
YUBILEINY 24 Aug 16:12:12 16:15:17 12° 65° (ENE) 16:18:20 435.215
ITAMSAT 1 24 Aug 16:16:40 16:19:33 15° 266° (W) 16:22:27 435.822/435.867
BEESAT 24 Aug 16:19:07 16:22:16 18° 292° (WNW) 16:25:26 436.000
STARS 24 Aug 16:32:12 16:36:04 30° 98° (E) 16:39:54 437.465
BRITE-PL 24 Aug 16:36:26 16:38:53 14° 65° (ENE) 16:41:26 437.365/2234.400
CUBESAT XI-V 24 Aug 16:39:12 16:40:01 10° 92° (E) 16:40:51 437.345
CUTE-I 24 Aug 16:53:01 16:54:36 11° 63° (ENE) 16:56:11 437.470
AO-7 24 Aug 16:55:14 17:02:07 28° 262° (W) 17:09:03 29.400- 29.500
ISS 24 Aug 16:56:13 16:59:21 44° 41° (NE) 17:02:29 145.825
NOAA 18 24 Aug 17:02:01 17:04:48 14° 63° (ENE) 17:07:34 137.9125
MOZHAYETS 4 24 Aug 17:02:50 17:07:04 39° 287° (WNW) 17:11:18
NOAA 15 24 Aug 17:03:33 17:07:14 20° 67° (ENE) 17:10:57 137.62
KKS-1 24 Aug 17:22:56 17:26:48 30° 289° (WNW) 17:30:39 437.445
SRMSAT 24 Aug 17:28:59 17:33:24 22° 185° (S) 17:37:49 437.500
HORYU 2 24 Aug 17:38:44 17:42:49 35° 261° (W) 17:46:54 437.375
Cosmos 2491 24 Aug 17:39:36 17:47:01 33° 86° (E) 17:54:27 435.465 / 435.565
